Showing default

SES 18, 55970

Orbit data source: Space-Track

SES 18, 55970 is a payload satellite owned by SES (LU) in GEO that was launched on Fri, 17 Mar 2023 UTC via an FALCON 9 launch vehicle from the Air Force Eastern Test Range (AFETR). Payload-class satellites include a variety of spacecraft equipped with specific instruments for various scientific and technological missions. These include communications satellites like Starlink; space stations such as the ISS; scientific satellites like the Hubble; Earth observation satellites from companies like Planet Labs, Umbra, and HawkEye 360; GPS; miniature CubeSats for education and research; and military/defense satellites.

Loading next visibility...
Identifier
55970, 2023-038A
Orbit
GEO
Country
Flag of LULU / SES
Related business
Manufacturer
NGIS SSG
Mission
Operational Commercial Communications
Bus & Motor
GEOSTAR-3, BT-4?
Mass
3,605 kg wet, 1,139 kg dry
Launch date (UTC)
2023-03-17 (3 years ago)
Launch vehicle
FALCON 9
Launch site
Air Force Eastern Test Range (AFETR)
Object type
Payload
Rocket body
Debris
Shape & HBR
Box + 2 Pan, 11.5 m
Radar Cross Section
29.373 m², Large (>1 m²)

Expand to show TLE details & history
Last TLE update: 2 days ago

TLE from 2 days ago
0 SES 18
1 55970U 23038A   26171.37161705 -.00000106  00000-0  00000+0 0  9996
2 55970   0.0112 310.7634 0000075 250.1603  98.3356  1.00271692 12134
Epoch: 2026-06-20T08:55Z
TLE epoch observation values (Epoch: 2026-06-20T08:55:07.713Z)
Latitude
-0.01332°
Longitude
-103.09692°
Altitude
35,786.158 km
Speed
3.075 km/s
True Right ascension
19h 57m 05s
True Declination
0° 00' 48"
Sunlit
Object was in daylight at epoch
Visualization orbit readout
Latitude
Unknown
Longitude
Unknown
Altitude
Unknown
Speed
Unknown
Apparent Right ascension
Unknown
Apparent Declination
Unknown
Sunlit
N/A
Visualization observer readout
Local Sidereal Time
00:50:47
Azimuth
Unknown
Elevation
Unknown
Doppler factor
Unknown
Orbital elements
Apogee altitude
35,788.008 km
Perigee altitude
35,787.375 km
Semi-major axis
42,165.828 km
Eccentricity
0.00001
Inclination
0.0112°
RAAN
310.7634°
Arg. of periapsis
250.1603°
True anomaly
98.33645°
Mean anomaly
98.3356°
Eccentric anomaly
98.33603°
Mean motion
0.25067 °/min
Orbital period
1,436.15 mins
BSTAR
0
Loading maneuver chart data...
Computing Atmospheric mass density...
Loading historical data...
Loading historical data...
Loading historical data...
Loading historical data...
Loading historical data...
Loading historical data...
Loading historical data...
Other satellites on launch #38 in the year 2023 (2023-03-17 UTC)

Documentation

Showing up to 5 results
|